Location: Bégole
(43.1574°N, 0.3291°E)
Time: 02:03:19
(UTC+00:00)

Cosmos 2227 - Pass Details

Date: 28 January 2023
Orbit: 833 x 862 km, 71.0° (Epoch: 27 March)

Event Time Altitude Azimuth Distance (km) Brightness Sun altitude
Rises 19:13:36 0° 333° (NNW) 3,447 7.7 -23.4°
Reaches altitude 10° 19:16:05 10° 332° (NNW) 2,508 6.9 -23.9°
Maximum altitude 19:21:50 73° 249° (WSW) 902 4.4 -24.9°
Enters shadow 19:26:32 16° 166° (SSE) 2,113 6.1 -25.8°
